02-10-2022, 00:00:02,    197,    0.3,   12.0,   0.00,   0.00, 1011.3,   81.0, -999.0
02-10-2022, 00:00:12,    229,    0.0,   11.9,   0.00,   0.00, 1011.2,   80.7, -999.0
02-10-2022, 00:00:22,    234,    0.5,   11.9,   0.00,   0.00, 1011.4,   81.2, -999.0
02-10-2022, 00:00:32,    217,    1.2,   11.9,   0.00,   0.00, 1011.4,   81.2, -999.0
02-10-2022, 00:00:42,    218,    0.5,   11.9,   0.00,   0.00, 1011.4,   81.2, -999.0
02-10-2022, 00:00:52,    211,    0.0,   11.9,   0.00,   0.00, 1011.3,   80.9, -999.0
02-10-2022, 00:01:02,    216,    0.0,   11.9,   0.00,   0.00, 1011.4,   81.0, -999.0
02-10-2022, 00:01:12,    217,    0.0,   11.9,   0.00,   0.00, 1011.2,   80.9, -999.0
02-10-2022, 00:01:22,    219,    0.0,   11.9,   0.00,   0.00, 1011.3,   81.0, -999.0
02-10-2022, 00:01:32,    219,    0.2,   11.9,   0.00,   0.00, 1011.3,   81.1, -999.0
02-10-2022, 00:01:42,    222,    0.0,   11.9,   0.00,   0.00, 1011.3,   81.0, -999.0
02-10-2022, 00:01:52,    197,    1.3,   11.9,   0.00,   0.00, 1011.4,   81.3, -999.0
02-10-2022, 00:02:02,    197,    0.4,   11.9,   0.00,   0.00, 1011.3,   81.1, -999.0
02-10-2022, 00:02:12,    219,    1.0,   11.9,   0.00,   0.00, 1011.4,   81.2, -999.0
02-10-2022, 00:02:22,    185,    2.2,   12.0,   0.00,   0.00, 1011.4,   81.4, -999.0
02-10-2022, 00:02:31,    208,    1.0,   12.0,   0.00,   0.00, 1011.4,   81.4, -999.0
02-10-2022, 00:02:42,    206,    1.0,   12.0,   0.00,   0.00, 1011.4,   81.3, -999.0
02-10-2022, 00:02:52,    212,    0.1,   11.9,   0.00,   0.00, 1011.3,   81.1, -999.0
02-10-2022, 00:03:01,    213,    0.0,   11.9,   0.00,   0.00, 1011.3,   81.0, -999.0
02-10-2022, 00:03:11,    213,    0.0,   11.8,   0.00,   0.00, 1011.2,   80.9, -999.0
02-10-2022, 00:03:22,    218,    0.0,   11.8,   0.00,   0.00, 1011.3,   81.0, -999.0
02-10-2022, 00:03:31,    203,    1.1,   11.9,   0.00,   0.00, 1011.4,   81.3, -999.0
02-10-2022, 00:03:41,    231,    1.1,   11.9,   0.00,   0.00, 1011.4,   81.4, -999.0
02-10-2022, 00:03:51,    249,    0.8,   11.9,   0.00,   0.00, 1011.4,   81.4, -999.0
02-10-2022, 00:04:01,    235,    1.4,   12.0,   0.00,   0.00, 1011.4,   81.3, -999.0
02-10-2022, 00:04:11,    213,    1.2,   12.0,   0.00,   0.00, 1011.4,   81.4, -999.0
02-10-2022, 00:04:21,    253,    1.4,   12.0,   0.00,   0.00, 1011.4,   81.4, -999.0
02-10-2022, 00:04:31,    238,    1.3,   12.0,   0.00,   0.00, 1011.4,   81.4, -999.0
02-10-2022, 00:04:41,    280,    1.4,   12.0,   0.00,   0.00, 1011.4,   81.4, -999.0
02-10-2022, 00:04:51,    213,    2.1,   11.9,   0.00,   0.00, 1011.4,   81.4, -999.0
02-10-2022, 00:05:01,    213,    0.1,   11.9,   0.00,   0.00, 1011.3,   81.1, -999.0
02-10-2022, 00:05:11,    213,    0.0,   11.9,   0.00,   0.00, 1011.3,   81.1, -999.0
02-10-2022, 00:05:21,    213,    0.0,   11.9,   0.00,   0.00, 1011.3,   81.1, -999.0
02-10-2022, 00:05:31,    191,    0.0,   11.8,   0.00,   0.00, 1011.3,   81.1, -999.0
02-10-2022, 00:05:40,    192,    1.4,   11.9,   0.00,   0.00, 1011.4,   81.4, -999.0
02-10-2022, 00:05:51,    191,    0.4,   11.9,   0.00,   0.00, 1011.3,   81.2, -999.0
02-10-2022, 00:06:01,    191,    0.0,   11.9,   0.00,   0.00, 1011.3,   81.0, -999.0
02-10-2022, 00:06:10,    205,    0.4,   11.9,   0.00,   0.00, 1011.3,   81.2, -999.0
02-10-2022, 00:06:20,    213,    0.9,   12.0,   0.00,   0.00, 1011.4,   81.3, -999.0
02-10-2022, 00:06:31,    215,    1.0,   11.9,   0.00,   0.00, 1011.4,   81.3, -999.0
02-10-2022, 00:06:40,    200,    2.3,   11.9,   0.00,   0.00, 1011.4,   81.5, -999.0
02-10-2022, 00:06:50,    222,    1.5,   11.9,   0.00,   0.00, 1011.4,   81.5, -999.0
02-10-2022, 00:07:00,    214,    0.1,   11.9,   0.00,   0.00, 1011.3,   81.2, -999.0
02-10-2022, 00:07:10,    214,    0.0,   11.8,   0.00,   0.00, 1011.3,   81.1, -999.0
02-10-2022, 00:07:20,    214,    0.0,   11.8,   0.00,   0.00, 1011.3,   81.1, -999.0
02-10-2022, 00:07:30,    231,    0.0,   11.9,   0.00,   0.00, 1011.3,   81.2, -999.0
02-10-2022, 00:07:40,    233,    0.9,   11.9,   0.00,   0.00, 1011.3,   81.5, -999.0
02-10-2022, 00:07:50,    220,    1.2,   12.0,   0.00,   0.00, 1011.4,   81.6, -999.0
02-10-2022, 00:08:00,    221,    0.6,   11.9,   0.00,   0.00, 1011.3,   81.5, -999.0
02-10-2022, 00:08:10,    221,    0.0,   11.8,   0.00,   0.00, 1011.3,   81.2, -999.0
02-10-2022, 00:08:20,    225,    0.2,   11.9,   0.00,   0.00, 1011.3,   81.3, -999.0
02-10-2022, 00:08:30,    227,    1.1,   11.9,   0.00,   0.00, 1011.4,   81.6, -999.0
02-10-2022, 00:08:40,    226,    0.4,   11.9,   0.00,   0.00, 1011.3,   81.7, -999.0
02-10-2022, 00:08:49,    225,    0.3,   11.9,   0.00,   0.00, 1011.3,   81.5, -999.0
02-10-2022, 00:09:00,    225,    0.0,   11.8,   0.00,   0.00, 1011.2,   81.2, -999.0
02-10-2022, 00:09:10,    222,    0.0,   11.8,   0.00,   0.00, 1011.3,   81.3, -999.0
02-10-2022, 00:09:19,    228,    0.7,   11.9,   0.00,   0.00, 1011.3,   81.6, -999.0
02-10-2022, 00:09:29,    227,    1.0,   11.9,   0.00,   0.00, 1011.3,   81.6, -999.0
02-10-2022, 00:09:39,    227,    0.3,   11.9,   0.00,   0.00, 1011.3,   81.5, -999.0
02-10-2022, 00:09:49,    209,    1.6,   11.8,   0.00,   0.00, 1011.3,   81.6, -999.0
02-10-2022, 00:09:59,    228,    2.4,   11.9,   0.00,   0.00, 1011.4,   81.8, -999.0
02-10-2022, 00:10:09,    243,    1.3,   11.9,   0.00,   0.00, 1011.3,   81.7, -999.0
02-10-2022, 00:10:19,    240,    1.2,   11.9,   0.00,   0.00, 1011.3,   81.8, -999.0
02-10-2022, 00:10:29,    229,    0.9,   11.9,   0.00,   0.00, 1011.4,   81.8, -999.0
02-10-2022, 00:10:39,    229,    0.4,   11.9,   0.00,   0.00, 1011.3,   81.6, -999.0
02-10-2022, 00:10:49,    211,    0.2,   11.8,   0.00,   0.00, 1011.3,   81.5, -999.0
02-10-2022, 00:10:59,    211,    0.1,   11.9,   0.00,   0.00, 1011.3,   81.7, -999.0
02-10-2022, 00:11:09,    213,    0.1,   11.8,   0.00,   0.00, 1011.3,   81.6, -999.0
02-10-2022, 00:11:19,    210,    0.0,   11.8,   0.00,   0.00, 1011.2,   81.4, -999.0
02-10-2022, 00:11:29,    213,    0.4,   11.8,   0.00,   0.00, 1011.3,   81.7, -999.0
02-10-2022, 00:11:39,    224,    1.4,   11.9,   0.00,   0.00, 1011.3,   81.8, -999.0
02-10-2022, 00:11:49,    237,    0.6,   11.9,   0.00,   0.00, 1011.3,   81.8, -999.0
02-10-2022, 00:11:58,    238,    1.1,   11.9,   0.00,   0.00, 1011.4,   81.8, -999.0
02-10-2022, 00:12:09,    237,    0.0,   11.8,   0.00,   0.00, 1011.2,   81.5, -999.0
02-10-2022, 00:12:19,    237,    0.0,   11.8,   0.00,   0.00, 1011.2,   81.4, -999.0
02-10-2022, 00:12:28,    237,    0.0,   11.8,   0.00,   0.00, 1011.2,   81.4, -999.0
02-10-2022, 00:12:38,    238,    0.0,   11.8,   0.00,   0.00, 1011.2,   81.5, -999.0
02-10-2022, 00:12:48,    177,    0.2,   11.8,   0.00,   0.00, 1011.3,   81.6, -999.0
02-10-2022, 00:12:58,    216,    1.7,   11.9,   0.00,   0.00, 1011.4,   81.9, -999.0
02-10-2022, 00:13:08,    200,    1.8,   11.9,   0.00,   0.00, 1011.4,   81.9, -999.0
02-10-2022, 00:13:18,    198,    2.1,   11.9,   0.00,   0.00, 1011.4,   82.0, -999.0
02-10-2022, 00:13:28,    208,    0.3,   11.8,   0.00,   0.00, 1011.4,   81.9, -999.0
02-10-2022, 00:13:38,    211,    0.3,   11.9,   0.00,   0.00, 1011.4,   82.0, -999.0
02-10-2022, 00:13:48,    204,    0.1,   11.8,   0.00,   0.00, 1011.3,   81.7, -999.0
02-10-2022, 00:13:58,    204,    0.6,   11.9,   0.00,   0.00, 1011.4,   82.1, -999.0
02-10-2022, 00:14:08,    219,    0.8,   11.9,   0.00,   0.00, 1011.4,   82.0, -999.0
02-10-2022, 00:14:18,    268,    1.3,   11.8,   0.00,   0.00, 1011.4,   82.0, -999.0
02-10-2022, 00:14:28,    234,    2.8,   11.9,   0.00,   0.00, 1011.4,   82.1, -999.0
02-10-2022, 00:14:38,    252,    3.6,   11.9,   0.00,   0.00, 1011.4,   82.1, -999.0
02-10-2022, 00:14:48,    242,    2.1,   11.9,   0.00,   0.00, 1011.5,   82.2, -999.0
02-10-2022, 00:14:58,    250,    2.5,   11.9,   0.00,   0.00, 1011.4,   82.2, -999.0
02-10-2022, 00:15:07,    250,    1.7,   11.9,   0.00,   0.00, 1011.4,   82.1, -999.0
02-10-2022, 00:15:18,    247,    1.4,   11.9,   0.00,   0.00, 1011.4,   82.1, -999.0
02-10-2022, 00:15:27,    251,    0.6,   11.8,   0.00,   0.00, 1011.5,   82.1, -999.0
02-10-2022, 00:15:37,    192,    1.1,   11.9,   0.00,   0.00, 1011.4,   82.0, -999.0
02-10-2022, 00:15:48,    205,    0.7,   11.9,   0.00,   0.00, 1011.5,   82.1, -999.0
02-10-2022, 00:15:57,    229,    0.6,   11.9,   0.00,   0.00, 1011.4,   82.0, -999.0
02-10-2022, 00:16:07,    234,    1.3,   11.9,   0.00,   0.00, 1011.4,   82.2, -999.0
02-10-2022, 00:16:17,    239,    0.3,   11.9,   0.00,   0.00, 1011.4,   82.1, -999.0
02-10-2022, 00:16:27,    245,    0.0,   11.8,   0.00,   0.00, 1011.4,   81.9, -999.0
02-10-2022, 00:16:37,    247,    0.5,   11.8,   0.00,   0.00, 1011.4,   82.0, -999.0
02-10-2022, 00:16:47,    247,    0.0,   11.8,   0.00,   0.00, 1011.3,   81.7, -999.0
02-10-2022, 00:16:57,    248,    0.3,   11.8,   0.00,   0.00, 1011.4,   81.9, -999.0
02-10-2022, 00:17:07,    250,    0.2,   11.8,   0.00,   0.00, 1011.4,   81.9, -999.0
02-10-2022, 00:17:17,    231,    0.7,   11.8,   0.00,   0.00, 1011.5,   82.1, -999.0
02-10-2022, 00:17:27,    230,    1.3,   11.9,   0.00,   0.00, 1011.5,   82.2, -999.0
02-10-2022, 00:17:37,    241,    0.3,   11.9,   0.00,   0.00, 1011.4,   82.1, -999.0
02-10-2022, 00:17:47,    241,    0.0,   11.8,   0.00,   0.00, 1011.3,   81.9, -999.0
02-10-2022, 00:17:57,    240,    0.3,   11.8,   0.00,   0.00, 1011.4,   82.0, -999.0
02-10-2022, 00:18:07,    240,    0.2,   11.9,   0.00,   0.00, 1011.4,   81.9, -999.0
02-10-2022, 00:18:16,    240,    0.0,   11.8,   0.00,   0.00, 1011.4,   81.9, -999.0
02-10-2022, 00:18:27,    239,    0.6,   11.9,   0.00,   0.00, 1011.4,   82.2, -999.0
02-10-2022, 00:18:36,    238,    0.5,   11.9,   0.00,   0.00, 1011.4,   82.2, -999.0
02-10-2022, 00:18:46,    238,    0.0,   11.8,   0.00,   0.00, 1011.3,   81.8, -999.0
02-10-2022, 00:18:57,    298,    0.6,   11.9,   0.00,   0.00, 1011.4,   82.1, -999.0
02-10-2022, 00:19:06,    237,    1.6,   11.9,   0.00,   0.00, 1011.5,   82.2, -999.0
02-10-2022, 00:19:16,    238,    1.6,   11.9,   0.00,   0.00, 1011.5,   82.2, -999.0
02-10-2022, 00:19:26,    236,    0.2,   11.8,   0.00,   0.00, 1011.4,   82.0, -999.0
02-10-2022, 00:19:36,    238,    0.0,   11.9,   0.00,   0.00, 1011.3,   81.9, -999.0
02-10-2022, 00:19:46,    247,    0.5,   11.9,   0.00,   0.00, 1011.4,   82.2, -999.0
02-10-2022, 00:19:56,    248,    1.3,   11.9,   0.00,   0.00, 1011.4,   82.2, -999.0
02-10-2022, 00:20:06,    252,    1.4,   11.9,   0.00,   0.00, 1011.4,   82.2, -999.0
02-10-2022, 00:20:16,    249,    0.1,   11.8,   0.00,   0.00, 1011.4,   82.0, -999.0
02-10-2022, 00:20:26,    224,    0.6,   11.8,   0.00,   0.00, 1011.4,   82.1, -999.0
02-10-2022, 00:20:36,    200,    2.4,   11.9,   0.00,   0.00, 1011.5,   82.2, -999.0
02-10-2022, 00:20:46,    199,    1.2,   11.9,   0.00,   0.00, 1011.4,   82.3, -999.0
02-10-2022, 00:20:56,    254,    1.7,   11.9,   0.00,   0.00, 1011.5,   82.3, -999.0
02-10-2022, 00:21:06,    250,    3.6,   11.9,   0.00,   0.00, 1011.4,   82.3, -999.0
02-10-2022, 00:21:15,    223,    2.9,   11.9,   0.00,   0.00, 1011.5,   82.2, -999.0
02-10-2022, 00:21:26,    220,    1.5,   11.8,   0.00,   0.00, 1011.4,   82.3, -999.0
02-10-2022, 00:21:36,    223,    0.6,   11.9,   0.00,   0.00, 1011.5,   82.3, -999.0
02-10-2022, 00:21:45,    238,    1.3,   11.9,   0.00,   0.00, 1011.5,   82.3, -999.0
02-10-2022, 00:21:55,    243,    1.1,   11.9,   0.00,   0.00, 1011.5,   82.2, -999.0
02-10-2022, 00:22:06,    248,    1.9,   11.9,   0.00,   0.00, 1011.5,   82.3, -999.0
02-10-2022, 00:22:15,    247,    0.5,   11.9,   0.00,   0.00, 1011.5,   82.2, -999.0
02-10-2022, 00:22:25,    247,    0.5,   11.9,   0.00,   0.00, 1011.5,   82.1, -999.0
02-10-2022, 00:22:35,    247,    0.0,   11.8,   0.00,   0.00, 1011.4,   82.0, -999.0
02-10-2022, 00:22:45,    247,    0.0,   11.8,   0.00,   0.00, 1011.4,   81.9, -999.0
02-10-2022, 00:22:55,    248,    0.0,   11.8,   0.00,   0.00, 1011.4,   81.9, -999.0
02-10-2022, 00:23:05,    248,    0.0,   11.8,   0.00,   0.00, 1011.4,   81.9, -999.0
02-10-2022, 00:23:15,    248,    0.0,   11.8,   0.00,   0.00, 1011.4,   81.9, -999.0
02-10-2022, 00:23:25,    248,    0.0,   11.8,   0.00,   0.00, 1011.4,   81.9, -999.0
02-10-2022, 00:23:35,    249,    0.0,   11.8,   0.00,   0.00, 1011.4,   81.9, -999.0
02-10-2022, 00:23:45,    248,    0.0,   11.8,   0.00,   0.00, 1011.4,   81.9, -999.0
02-10-2022, 00:23:55,    248,    0.0,   11.8,   0.00,   0.00, 1011.4,   81.9, -999.0
02-10-2022, 00:24:05,    243,    0.0,   11.8,   0.00,   0.00, 1011.4,   81.9, -999.0
02-10-2022, 00:24:15,    243,    0.5,   11.9,   0.00,   0.00, 1011.5,   82.2, -999.0
02-10-2022, 00:24:24,    248,    0.5,   11.9,   0.00,   0.00, 1011.5,   82.2, -999.0
02-10-2022, 00:24:35,    247,    0.0,   11.9,   0.00,   0.00, 1011.4,   81.9, -999.0
02-10-2022, 00:24:45,    211,    0.4,   11.8,   0.00,   0.00, 1011.5,   82.2, -999.0
02-10-2022, 00:24:54,    194,    0.9,   11.9,   0.00,   0.00, 1011.5,   82.3, -999.0
02-10-2022, 00:25:04,    199,    0.0,   11.8,   0.00,   0.00, 1011.4,   81.9, -999.0
02-10-2022, 00:25:15,    199,    0.0,   11.8,   0.00,   0.00, 1011.4,   81.8, -999.0
02-10-2022, 00:25:24,    217,    0.1,   11.8,   0.00,   0.00, 1011.4,   81.9, -999.0
02-10-2022, 00:25:34,    245,    1.4,   11.8,   0.00,   0.00, 1011.5,   82.3, -999.0
02-10-2022, 00:25:44,    275,    1.2,   11.8,   0.00,   0.00, 1011.5,   82.3, -999.0
02-10-2022, 00:25:54,    236,    1.2,   11.8,   0.00,   0.00, 1011.5,   82.2, -999.0
02-10-2022, 00:26:04,    211,    1.5,   11.8,   0.00,   0.00, 1011.5,   82.3, -999.0
02-10-2022, 00:26:14,    217,    0.7,   11.8,   0.00,   0.00, 1011.5,   82.1, -999.0
02-10-2022, 00:26:24,    218,    0.2,   11.9,   0.00,   0.00, 1011.5,   82.0, -999.0
02-10-2022, 00:26:34,    231,    1.0,   11.9,   0.00,   0.00, 1011.4,   82.1, -999.0
02-10-2022, 00:26:44,    234,    3.1,   11.9,   0.00,   0.00, 1011.5,   82.3, -999.0
02-10-2022, 00:26:54,    239,    1.7,   11.9,   0.00,   0.00, 1011.5,   82.3, -999.0
02-10-2022, 00:27:04,    237,    0.1,   11.8,   0.00,   0.00, 1011.4,   82.1, -999.0
02-10-2022, 00:27:14,    200,    0.9,   11.9,   0.00,   0.00, 1011.5,   82.2, -999.0
02-10-2022, 00:27:24,    232,    0.4,   11.9,   0.00,   0.00, 1011.5,   82.2, -999.0
02-10-2022, 00:27:33,    232,    0.3,   11.9,   0.00,   0.00, 1011.4,   82.1, -999.0
02-10-2022, 00:27:43,    239,    1.5,   11.9,   0.00,   0.00, 1011.5,   82.3, -999.0
02-10-2022, 00:27:54,    250,    1.0,   11.9,   0.00,   0.00, 1011.5,   82.2, -999.0
02-10-2022, 00:28:03,    250,    0.9,   11.9,   0.00,   0.00, 1011.5,   82.3, -999.0
02-10-2022, 00:28:13,    249,    0.0,   11.8,   0.00,   0.00, 1011.4,   81.8, -999.0
02-10-2022, 00:28:24,    210,    0.1,   11.8,   0.00,   0.00, 1011.4,   81.9, -999.0
02-10-2022, 00:28:33,    236,    1.3,   11.9,   0.00,   0.00, 1011.5,   82.2, -999.0
02-10-2022, 00:28:43,    238,    1.4,   11.9,   0.00,   0.00, 1011.5,   82.3, -999.0
02-10-2022, 00:28:53,    238,    0.2,   11.8,   0.00,   0.00, 1011.5,   82.0, -999.0
02-10-2022, 00:29:03,    238,    0.0,   11.8,   0.00,   0.00, 1011.4,   81.8, -999.0
02-10-2022, 00:29:13,    239,    0.6,   11.9,   0.00,   0.00, 1011.5,   82.1, -999.0
02-10-2022, 00:29:23,    226,    2.6,   11.9,   0.00,   0.00, 1011.5,   82.2, -999.0
02-10-2022, 00:29:33,    228,    0.8,   11.9,   0.00,   0.00, 1011.5,   82.2, -999.0
02-10-2022, 00:29:43,    234,    0.0,   11.8,   0.00,   0.00, 1011.4,   82.0, -999.0
02-10-2022, 00:29:53,    188,    0.6,   11.8,   0.00,   0.00, 1011.5,   82.3, -999.0
02-10-2022, 00:30:03,    190,    0.0,   11.8,   0.00,   0.00, 1011.4,   82.0, -999.0
02-10-2022, 00:30:13,    194,    0.0,   11.8,   0.00,   0.00, 1011.4,   82.0, -999.0
02-10-2022, 00:30:23,    194,    0.5,   11.9,   0.00,   0.00, 1011.5,   82.3, -999.0
02-10-2022, 00:30:33,    199,    0.0,   11.8,   0.00,   0.00, 1011.4,   82.0, -999.0
02-10-2022, 00:30:42,    207,    0.8,   11.9,   0.00,   0.00, 1011.6,   82.3, -999.0
02-10-2022, 00:30:53,    269,    1.1,   11.8,   0.00,   0.00, 1011.6,   82.3, -999.0
02-10-2022, 00:31:03,    269,    0.3,   11.8,   0.00,   0.00, 1011.5,   82.1, -999.0
02-10-2022, 00:31:12,    269,    0.0,   11.8,   0.00,   0.00, 1011.4,   82.1, -999.0
02-10-2022, 00:31:22,    268,    0.3,   11.8,   0.00,   0.00, 1011.5,   82.2, -999.0
02-10-2022, 00:31:33,    267,    0.3,   11.9,   0.00,   0.00, 1011.5,   82.1, -999.0
02-10-2022, 00:31:42,    222,    1.3,   11.9,   0.00,   0.00, 1011.5,   82.2, -999.0
02-10-2022, 00:31:52,    223,    1.7,   11.9,   0.00,   0.00, 1011.5,   82.2, -999.0
02-10-2022, 00:32:02,    222,    0.6,   11.9,   0.00,   0.00, 1011.5,   82.2, -999.0
02-10-2022, 00:32:12,    197,    0.1,   11.9,   0.00,   0.00, 1011.4,   82.0, -999.0
02-10-2022, 00:32:22,    272,    0.4,   11.8,   0.00,   0.00, 1011.4,   82.1, -999.0
02-10-2022, 00:32:32,    272,    1.3,   11.9,   0.00,   0.00, 1011.5,   82.2, -999.0
02-10-2022, 00:32:42,    231,    0.9,   11.9,   0.00,   0.00, 1011.5,   82.2, -999.0
02-10-2022, 00:32:52,    229,    0.1,   11.9,   0.00,   0.00, 1011.4,   82.1, -999.0
02-10-2022, 00:33:02,    229,    0.1,   11.8,   0.00,   0.00, 1011.4,   82.1, -999.0
02-10-2022, 00:33:12,    230,    0.0,   11.8,   0.00,   0.00, 1011.4,   81.9, -999.0
02-10-2022, 00:33:21,    250,    1.5,   11.9,   0.00,   0.00, 1011.5,   82.3, -999.0
02-10-2022, 00:33:32,    251,    1.2,   11.9,   0.00,   0.00, 1011.5,   82.3, -999.0
02-10-2022, 00:33:42,    250,    0.0,   11.8,   0.00,   0.00, 1011.4,   81.8, -999.0
02-10-2022, 00:33:51,    250,    0.0,   11.8,   0.00,   0.00, 1011.4,   81.9, -999.0
02-10-2022, 00:34:02,    243,    0.0,   11.8,   0.00,   0.00, 1011.4,   81.9, -999.0
02-10-2022, 00:34:12,    242,    0.4,   11.9,   0.00,   0.00, 1011.5,   82.2, -999.0
02-10-2022, 00:34:21,    241,    0.3,   11.8,   0.00,   0.00, 1011.5,   82.1, -999.0
02-10-2022, 00:34:31,    240,    0.0,   11.8,   0.00,   0.00, 1011.3,   82.0, -999.0
02-10-2022, 00:34:42,    241,    0.0,   11.8,   0.00,   0.00, 1011.4,   82.0, -999.0
02-10-2022, 00:34:51,    241,    0.0,   11.8,   0.00,   0.00, 1011.3,   81.9, -999.0
02-10-2022, 00:35:01,    241,    0.0,   11.8,   0.00,   0.00, 1011.4,   81.9, -999.0
02-10-2022, 00:35:11,    190,    0.2,   11.8,   0.00,   0.00, 1011.4,   81.9, -999.0
02-10-2022, 00:35:21,    182,    1.7,   11.9,   0.00,   0.00, 1011.5,   82.3, -999.0
02-10-2022, 00:35:31,    184,    0.3,   11.9,   0.00,   0.00, 1011.4,   82.1, -999.0
02-10-2022, 00:35:41,    184,    0.0,   11.8,   0.00,   0.00, 1011.4,   81.9, -999.0
02-10-2022, 00:35:51,    184,    0.0,   11.8,   0.00,   0.00, 1011.4,   81.9, -999.0
02-10-2022, 00:36:01,    232,    0.9,   11.9,   0.00,   0.00, 1011.5,   82.3, -999.0
02-10-2022, 00:36:11,    231,    0.3,   11.9,   0.00,   0.00, 1011.4,   82.2, -999.0
02-10-2022, 00:36:21,    231,    0.0,   11.8,   0.00,   0.00, 1011.4,   82.0, -999.0
02-10-2022, 00:36:31,    231,    0.0,   11.8,   0.00,   0.00, 1011.3,   81.9, -999.0
02-10-2022, 00:36:41,    231,    0.0,   11.8,   0.00,   0.00, 1011.4,   81.9, -999.0
02-10-2022, 00:36:51,    231,    0.0,   11.8,   0.00,   0.00, 1011.4,   82.1, -999.0
02-10-2022, 00:37:00,    231,    0.5,   11.9,   0.00,   0.00, 1011.5,   82.3, -999.0
02-10-2022, 00:37:11,    282,    0.3,   11.8,   0.00,   0.00, 1011.4,   82.1, -999.0
02-10-2022, 00:37:21,    220,    0.4,   11.8,   0.00,   0.00, 1011.4,   82.2, -999.0
02-10-2022, 00:37:30,    219,    0.5,   11.9,   0.00,   0.00, 1011.5,   82.2, -999.0
02-10-2022, 00:37:40,    228,    1.4,   11.9,   0.00,   0.00, 1011.5,   82.4, -999.0
02-10-2022, 00:37:51,    257,    3.1,   11.9,   0.00,   0.00, 1011.5,   82.4, -999.0
02-10-2022, 00:38:00,    268,    1.2,   11.9,   0.00,   0.00, 1011.5,   82.3, -999.0
02-10-2022, 00:38:10,    214,    0.2,   11.9,   0.00,   0.00, 1011.5,   82.2, -999.0
02-10-2022, 00:38:20,    218,    0.0,   11.8,   0.00,   0.00, 1011.4,   82.0, -999.0
02-10-2022, 00:38:30,    250,    1.2,   11.9,   0.00,   0.00, 1011.5,   82.4, -999.0
02-10-2022, 00:38:40,    228,    1.0,   11.9,   0.00,   0.00, 1011.5,   82.3, -999.0
02-10-2022, 00:38:50,    231,    1.7,   11.9,   0.00,   0.00, 1011.5,   82.3, -999.0
02-10-2022, 00:39:00,    225,    2.5,   11.9,   0.00,   0.00, 1011.5,   82.4, -999.0
02-10-2022, 00:39:10,    224,    1.3,   11.9,   0.00,   0.00, 1011.5,   82.4, -999.0
02-10-2022, 00:39:20,    264,    1.7,   11.9,   0.00,   0.00, 1011.5,   82.3, -999.0
02-10-2022, 00:39:30,    253,    2.1,   11.9,   0.00,   0.00, 1011.5,   82.3, -999.0
02-10-2022, 00:39:39,    263,    0.7,   11.9,   0.00,   0.00, 1011.5,   82.4, -999.0
02-10-2022, 00:39:50,    161,    0.5,   11.9,   0.00,   0.00, 1011.5,   82.3, -999.0
02-10-2022, 00:40:00,    201,    0.2,   11.9,   0.00,   0.00, 1011.5,   82.2, -999.0
02-10-2022, 00:40:09,    203,    0.2,   11.9,   0.00,   0.00, 1011.4,   82.1, -999.0
02-10-2022, 00:40:20,    231,    1.5,   11.9,   0.00,   0.00, 1011.6,   82.3, -999.0
02-10-2022, 00:40:30,    255,    3.0,   11.9,   0.00,   0.00, 1011.5,   82.3, -999.0
02-10-2022, 00:40:39,    236,    2.1,   11.9,   0.00,   0.00, 1011.5,   82.3, -999.0
02-10-2022, 00:40:49,    243,    1.2,   11.9,   0.00,   0.00, 1011.5,   82.4, -999.0
02-10-2022, 00:41:00,    244,    0.0,   11.8,   0.00,   0.00, 1011.4,   82.0, -999.0
02-10-2022, 00:41:09,    242,    0.0,   11.8,   0.00,   0.00, 1011.4,   81.9, -999.0
02-10-2022, 00:41:19,    241,    0.0,   11.8,   0.00,   0.00, 1011.4,   82.0, -999.0
02-10-2022, 00:41:29,    241,    0.0,   11.8,   0.00,   0.00, 1011.4,   82.0, -999.0
02-10-2022, 00:41:39,    251,    1.6,   11.9,   0.00,   0.00, 1011.5,   82.2, -999.0
02-10-2022, 00:41:49,    218,    1.8,   11.9,   0.00,   0.00, 1011.5,   82.4, -999.0
02-10-2022, 00:41:59,    221,    0.5,   11.9,   0.00,   0.00, 1011.5,   82.2, -999.0
02-10-2022, 00:42:09,    219,    0.0,   11.8,   0.00,   0.00, 1011.4,   82.0, -999.0
02-10-2022, 00:42:19,    219,    0.0,   11.8,   0.00,   0.00, 1011.4,   82.2, -999.0
02-10-2022, 00:42:29,    219,    0.5,   11.9,   0.00,   0.00, 1011.5,   82.3, -999.0
02-10-2022, 00:42:39,    218,    0.1,   11.8,   0.00,   0.00, 1011.4,   82.1, -999.0
02-10-2022, 00:42:49,    218,    0.9,   11.9,   0.00,   0.00, 1011.5,   82.4, -999.0
02-10-2022, 00:42:59,    218,    0.2,   11.9,   0.00,   0.00, 1011.5,   82.2, -999.0
02-10-2022, 00:43:09,    218,    0.0,   11.8,   0.00,   0.00, 1011.4,   82.0, -999.0
02-10-2022, 00:43:18,    210,    0.7,   11.8,   0.00,   0.00, 1011.5,   82.3, -999.0
02-10-2022, 00:43:29,    220,    1.9,   11.9,   0.00,   0.00, 1011.5,   82.4, -999.0
02-10-2022, 00:43:39,    216,    1.0,   11.8,   0.00,   0.00, 1011.4,   82.3, -999.0
02-10-2022, 00:43:48,    223,    2.4,   11.9,   0.00,   0.00, 1011.5,   82.4, -999.0
02-10-2022, 00:43:58,    326,    1.7,   11.9,   0.00,   0.00, 1011.5,   82.4, -999.0
02-10-2022, 00:44:08,    235,    0.6,   11.9,   0.00,   0.00, 1011.5,   82.4, -999.0
02-10-2022, 00:44:18,    236,    0.2,   11.9,   0.00,   0.00, 1011.4,   82.1, -999.0
02-10-2022, 00:44:28,    236,    0.0,   11.9,   0.00,   0.00, 1011.4,   82.2, -999.0
02-10-2022, 00:44:38,    234,    0.3,   11.9,   0.00,   0.00, 1011.5,   82.4, -999.0
02-10-2022, 00:44:48,    206,    1.5,   11.9,   0.00,   0.00, 1011.5,   82.3, -999.0
02-10-2022, 00:44:58,    221,    1.6,   11.9,   0.00,   0.00, 1011.5,   82.4, -999.0
02-10-2022, 00:45:08,    225,    0.6,   11.9,   0.00,   0.00, 1011.5,   82.3, -999.0
02-10-2022, 00:45:18,    225,    0.2,   11.9,   0.00,   0.00, 1011.5,   82.3, -999.0
02-10-2022, 00:45:28,    208,    1.1,   11.9,   0.00,   0.00, 1011.5,   82.3, -999.0
02-10-2022, 00:45:38,    211,    0.6,   11.9,   0.00,   0.00, 1011.5,   82.4, -999.0
02-10-2022, 00:45:48,    245,    0.8,   11.9,   0.00,   0.00, 1011.5,   82.4, -999.0
02-10-2022, 00:45:58,    230,    1.7,   11.9,   0.00,   0.00, 1011.5,   82.3, -999.0
02-10-2022, 00:46:08,    227,    0.8,   11.8,   0.00,   0.00, 1011.5,   82.3, -999.0
02-10-2022, 00:46:18,    227,    0.0,   11.8,   0.00,   0.00, 1011.4,   82.2, -999.0
02-10-2022, 00:46:27,    224,    0.3,   11.8,   0.00,   0.00, 1011.4,   82.2, -999.0
02-10-2022, 00:46:38,    225,    1.1,   11.9,   0.00,   0.00, 1011.5,   82.5, -999.0